Date,TemperatureHighF,TemperatureAvgF,TemperatureLowF,DewpointHighF,DewpointAvgF,DewpointLowF,HumidityHigh,HumidityAvg,HumidityLow,PressureMaxIn,PressureMinIn,WindSpeedMaxMPH,WindSpeedAvgMPH,GustSpeedMaxMPH,PrecipitationSumIn
2013-1-1,52,44,39,37,33,29,79,65,47,30.07,29.94,20,9,0,0.00
2013-1-2,58,47,41,32,26,23,68,45,26,30.01,29.89,18,11,0,0.00
2013-1-3,58,50,45,44,29,19,91,48,26,30.01,29.92,14,9,0,0.00
2013-1-4,59,51,46,44,33,24,91,52,31,30.03,29.92,12,7,0,0.00
2013-1-5,54,46,41,46,42,34,99,86,53,30.04,29.86,14,7,0,0.21
2013-1-6,46,43,40,44,41,39,99,93,86,29.97,29.81,17,8,0,0.76
2013-1-7,52,46,39,47,41,37,99,85,70,30.03,29.91,16,8,0,0.00
2013-1-8,60,53,48,49,44,41,83,71,58,29.98,29.87,19,9,0,0.00
2013-1-9,56,48,40,47,43,39,99,85,56,29.90,29.80,26,9,0,0.20
2013-1-10,44,41,36,39,36,34,99,83,67,29.99,29.86,34,16,0,0.43
2013-1-11,46,42,39,42,36,31,98,80,63,30.05,29.91,23,12,0,0.02
2013-1-12,45,40,35,39,32,22,98,74,41,30.02,29.90,11,7,0,0.00
2013-1-13,44,39,32,34,23,14,80,55,33,30.02,29.92,16,8,0,0.00
2013-1-14,46,40,32,23,18,13,50,40,32,30.16,29.98,18,10,0,0.00
2013-1-15,51,43,37,36,24,16,73,46,32,30.23,30.13,14,8,0,0.00
2013-1-16,56,49,41,36,31,27,59,51,40,30.16,29.96,14,8,0,0.00
2013-1-17,67,59,50,39,33,27,49,37,26,29.96,29.85,18,9,0,0.03
2013-1-18,65,60,54,37,30,23,44,33,22,29.93,29.85,18,9,0,0.00
2013-1-19,66,58,53,36,27,21,38,30,21,29.95,29.87,17,10,0,0.02
2013-1-20,72,60,53,34,24,17,34,25,14,29.94,29.83,19,11,0,0.02
2013-1-21,69,61,54,33,23,14,31,23,16,29.92,29.79,20,10,0,0.00
2013-1-22,68,60,54,38,26,17,42,27,17,29.84,29.74,16,8,0,0.00
2013-1-23,66,57,48,46,32,21,94,44,19,29.82,29.70,12,6,0,0.03
2013-1-24,54,51,47,54,49,42,99,95,70,29.95,29.79,8,4,0,0.09
2013-1-25,63,56,53,58,54,52,99,96,82,29.95,29.79,16,6,0,0.01
2013-1-26,55,49,44,53,46,41,99,91,72,29.87,29.77,20,9,0,0.00
2013-1-27,48,44,42,42,40,36,94,86,64,29.95,29.86,24,13,0,0.00
2013-1-28,49,45,41,44,42,38,98,89,76,30.07,29.94,22,12,0,0.00
2013-1-29,50,46,42,45,43,40,99,90,68,30.12,30.03,15,7,0,0.00
2013-1-30,58,53,47,47,42,38,79,66,54,30.12,30.00,15,7,0,0.00
2013-1-31,64,55,48,46,40,33,67,57,41,30.03,29.89,17,8,0,0.00